{"data":{"norad_id":60917,"epoch":"2026-09-21T21:31:47.584128Z","epoch_age_seconds":67803,"freshness":"FRESH","line1":"1 60917U 24154Q   26264.89707852 -.00001410  00000+0 -33678-4 0  9993","line2":"2 60917  53.1601  91.1739 0001171  96.6421 263.4714 15.31690347116395","mean_motion":15.31690347,"eccentricity":0.0001171,"inclination_deg":53.1601,"raan_deg":91.1739,"arg_perigee_deg":96.6421,"mean_anomaly_deg":263.4714,"bstar":-3.3678e-5,"rev_number":11639,"period_min":94.013780449842,"perigee_km":469.96676360175,"apogee_km":471.57077733319,"semimajor_km":6848.9057704675,"source":"CELESTRAK","updated_at":"2026-09-22T09:00:49.285945Z"}}